Regional Weather Roundup
Issued by NWS Newport/Morehead, NC

Current Version | Previous Version | Text Only | Print | Product List | Glossary On
Versions: 1 2 3 4 5 6 7 8 9 10 11 12 13 14 15 16 17 18 19 20 21 22 23 24 25 26 27 28 29 30 31 32 33 34 35 36 37 38 39 40 41 42 43 44 45 46 47 48 49 50
000
ASUS42 KMHX 211325
RWRMHX
WEATHER ROUNDUP FOR EASTERN NORTH CAROLINA
NATIONAL WEATHER SERVICE NEWPORT/MOREHEAD CITY NC
800 AM EST TUE NOV 21 2017

NOTE: "FAIR" INDICATES FEW OR NO CLOUDS BELOW 12,000 FEET
WITH NO SIGNIFICANT WEATHER AND/OR OBSTRUCTIONS TO VISIBILITY

NCZ015>017-031-032-045>047-102-103-211400-
NORTH COAST

CITY           SKY/WX    TMP DP  RH WIND       PRES   REMARKS
EDENTON        MOSUNNY   38  36  93 CALM      30.27S
ELIZABETH CITY MOSUNNY   41  41 100 S5        30.26R
KITTY HAWK     SUNNY     47  40  77 CALM      30.25S
MANTEO         SUNNY     44  42  91 CALM      30.27R

$$

NCZ045>047-081-094-103-104-211400-
CENTRAL COAST

CITY           SKY/WX    TMP DP  RH WIND       PRES   REMARKS
FRISCO         SUNNY     53  49  86 N5        30.26R

$$

NCZ095-097-098-100-101-211400-
SOUTHERN COAST

CITY           SKY/WX    TMP DP  RH WIND       PRES   REMARKS
BEAUFORT       SUNNY     49  47  93 CALM      30.26R
CEDAR ISLAND   NOT AVBL
JACKSONVILLE   MOSUNNY   40  38  93 CALM      30.26R
PINEY ISLAND   NOT AVBL
WILMINGTON     MOSUNNY   45  41  86 NE3       30.25R


$$

NCZ011>013-027>030-043-044-078>080-089-090>093-098-211400-
COASTAL PLAIN

CITY           SKY/WX    TMP DP  RH WIND       PRES   REMARKS
AHOSKIE        SUNNY     31  31 100 CALM      30.27R
CLINTON        CLOUDY    37  36  97 CALM      30.26S
ELIZABETHTOWN  NOT AVBL
GOLDSBORO      MOSUNNY   37  31  82 CALM      30.24S
GREENVILLE     SUNNY     34  34 100 CALM      30.27S
HAVELOCK       NOT AVBL
KENANSVILLE    CLOUDY    34  34 100 CALM      30.27R
KINSTON        CLOUDY    36  34  93 CALM      30.26F
NEW BERN       SUNNY     39  39 100 CALM      30.27R
RICHLANDS      MOSUNNY   35  34  96 CALM      30.27R
ROCKY MOUNT    CLOUDY    32  31  96 CALM      30.25F
WASHINGTON     SUNNY     37  34  90 CALM      30.27R
WHITEVILLE     MOSUNNY   41  37  87 NE5       30.23F

$$

AMZ130-135-150-152-154-156-158-170-250-252-270-ANZ085-086-088-633-658-670-211400-
MARINE OBSERVATIONS

STATION/POSITION TIME  TEMP    WIND        PRES    WAVE   SWELL
                       AIR SEA DIR/SP/G            HT/PER HT/PER
                 (UTC) (F)     (DEG/KT/KT) (MB)    (FT/S) (FT/S)
CHESAPEAKE LIGHT NOT AVBL
64 E VA BEACH    1250   57 60  230/ 12/ 14 1024.7    2/ 4   2/ 7
DUCK             1300   51 60  220/  5/  6 1024.2
2 E DUCK         1300      61                N/A     1/ 8
OREGON INLET     1300   57 53     CALM     1024.6
13E OREGON INLT  1248      62                N/A     2/ 6   2/ 6
HATTERAS CG      1300   54 58   30/  4/  5 1024.3
DIAMOND BUOY     1310   65 76  320/  8/ 12 1024.6
CAPE LOOKOUT     1300           30/  7/  8 1024.6
BEAUFORT LAB     1300   49 58   20/  5/  6 1024.4
30 SE NEW RVR IN 1308   62 67   50/ 10/ 12 1024.0
30 SE NEW RVR IN 1300      67                N/A     2/ 8
27 SE WRIGHTSVLE 1308   63 68   40/ 12/ 17 1023.1
5 SE WRIGHTSVLE  1308   59 64   40/  8/ 12 1023.6
225 S CAPE HAT   1250   70 76  100/ 16/ 19 1022.9    5/ 8   2/ 8
41 SE CHARLESTON 1310   72     140/ 12/ 16 1021.2

$$




USA.gov is the U.S. government's official web portal to all federal, state and local government web resources and services.